DLH6PF EDDM-LDDU

Flight info

Callsign DLH6PF
Flight time 1h 9m
Altitude 33000
Route VAVOR3S/26L VAVOR M867 RADIZ DCT GIMIX/N0453F370 DCT ALIVO DCT SIPAL
Aircraft A321/M-SDE2E3FGIJ1LORWXYZHB1/LB1

Departure

Time 2026-05-07 14:02
Airport Munich Airport (EDDM)

Arrival

Time 2026-05-07 15:11
Airport Dubrovnik Ruđer Bošković Airport (LDDU)
Time Latitude Longitude Altitude Speed Heading
2026-05-07 13:07 48.35381 11.80023 1486 ft 0 kts 263°
2026-05-07 13:52 48.35384 11.80057 1474 ft 4 kts 263°
2026-05-07 13:53 48.35386 11.80089 1475 ft 4 kts 259°
2026-05-07 13:53 48.35396 11.80111 1473 ft 4 kts 180°
2026-05-07 13:53 48.35421 11.80108 1471 ft 4 kts 173°
2026-05-07 13:53 48.35432 11.80106 1481 ft 0 kts 173°
2026-05-07 13:57 48.35424 11.80108 1472 ft 3 kts 173°
2026-05-07 13:57 48.35385 11.80120 1481 ft 8 kts 166°
2026-05-07 13:57 48.35310 11.80135 1475 ft 12 kts 173°
2026-05-07 13:58 48.35235 11.80149 1478 ft 13 kts 173°
2026-05-07 13:58 48.35151 11.80135 1480 ft 12 kts 216°
2026-05-07 13:58 48.35124 11.80003 1476 ft 14 kts 262°
2026-05-07 13:58 48.35112 11.79846 1476 ft 16 kts 263°
2026-05-07 13:59 48.35087 11.79680 1474 ft 16 kts 229°
2026-05-07 13:59 48.34996 11.79668 1485 ft 13 kts 173°
2026-05-07 13:59 48.34923 11.79682 1473 ft 10 kts 173°
2026-05-07 13:59 48.34850 11.79695 1482 ft 11 kts 172°
2026-05-07 14:00 48.34809 11.79781 1483 ft 12 kts 88°
2026-05-07 14:00 48.34819 11.79916 1485 ft 14 kts 83°
2026-05-07 14:00 48.34831 11.80068 1485 ft 15 kts 85°
2026-05-07 14:00 48.34789 11.80215 1475 ft 16 kts 140°
2026-05-07 14:01 48.34674 11.80245 1485 ft 18 kts 177°
2026-05-07 14:01 48.34547 11.80274 1482 ft 19 kts 171°
2026-05-07 14:01 48.34466 11.80239 1482 ft 12 kts 246°
2026-05-07 14:01 48.34453 11.80106 1485 ft 16 kts 260°
2026-05-07 14:02 48.34424 11.79708 1486 ft 74 kts 263°
2026-05-07 14:02 48.34337 11.78577 1476 ft 141 kts 264°
2026-05-07 14:02 48.34202 11.76882 1694 ft 174 kts 265°
2026-05-07 14:02 48.34056 11.75079 2500 ft 175 kts 264°
2026-05-07 14:03 48.33886 11.73199 2913 ft 194 kts 260°
2026-05-07 14:03 48.33180 11.71362 3221 ft 221 kts 220°
2026-05-07 14:03 48.31724 11.70474 3911 ft 227 kts 197°
2026-05-07 14:03 48.30154 11.70167 4807 ft 232 kts 181°
2026-05-07 14:04 48.28584 11.70740 5601 ft 239 kts 155°
2026-05-07 14:04 48.27168 11.72190 6120 ft 258 kts 142°
2026-05-07 14:04 48.25714 11.73936 6557 ft 278 kts 143°
2026-05-07 14:04 48.24207 11.75847 7136 ft 287 kts 141°
2026-05-07 14:05 48.22705 11.77828 7941 ft 289 kts 141°
2026-05-07 14:05 48.21183 11.79825 8728 ft 292 kts 141°
2026-05-07 14:05 48.19636 11.81830 9513 ft 295 kts 142°
2026-05-07 14:05 48.18072 11.83846 10226 ft 301 kts 142°
2026-05-07 14:06 48.16420 11.85964 10439 ft 324 kts 142°
2026-05-07 14:06 48.14649 11.88232 10595 ft 346 kts 142°
2026-05-07 14:06 48.12767 11.90644 10820 ft 363 kts 142°
2026-05-07 14:06 48.10832 11.93133 11372 ft 370 kts 142°
2026-05-07 14:07 48.08872 11.95661 11997 ft 374 kts 142°
2026-05-07 14:07 48.06895 11.98212 12628 ft 378 kts 142°
2026-05-07 14:07 48.04892 12.00791 13293 ft 380 kts 142°
2026-05-07 14:07 48.02881 12.03376 13947 ft 383 kts 142°
2026-05-07 14:08 48.00852 12.05974 14508 ft 386 kts 142°
2026-05-07 14:08 47.98803 12.08584 15099 ft 388 kts 142°
2026-05-07 14:08 47.96735 12.11211 15683 ft 391 kts 142°
2026-05-07 14:08 47.94660 12.13850 16267 ft 394 kts 142°
2026-05-07 14:09 47.92564 12.16517 16824 ft 397 kts 142°
2026-05-07 14:09 47.90455 12.19191 17379 ft 400 kts 142°
2026-05-07 14:09 47.88320 12.21882 17920 ft 403 kts 142°
2026-05-07 14:09 47.86165 12.24581 18424 ft 406 kts 142°
2026-05-07 14:10 47.83995 12.27293 18891 ft 409 kts 142°
2026-05-07 14:10 47.81802 12.30033 19341 ft 412 kts 142°
2026-05-07 14:10 47.79602 12.32782 19809 ft 415 kts 142°
2026-05-07 14:10 47.77397 12.35538 20268 ft 418 kts 142°
2026-05-07 14:11 47.75149 12.38346 20723 ft 420 kts 142°
2026-05-07 14:11 47.72904 12.41153 21179 ft 423 kts 142°
2026-05-07 14:11 47.70669 12.43942 21634 ft 426 kts 142°
2026-05-07 14:11 47.68387 12.46777 22084 ft 429 kts 142°
2026-05-07 14:12 47.66082 12.49620 22539 ft 432 kts 142°
2026-05-07 14:12 47.63767 12.52469 22977 ft 435 kts 142°
2026-05-07 14:12 47.61417 12.55311 23409 ft 437 kts 143°
2026-05-07 14:12 47.59000 12.58064 23802 ft 440 kts 145°
2026-05-07 14:13 47.56533 12.60745 24195 ft 441 kts 146°
2026-05-07 14:13 47.54033 12.63389 24622 ft 442 kts 147°
2026-05-07 14:13 47.51533 12.66023 25100 ft 441 kts 147°
2026-05-07 14:13 47.49043 12.68669 25554 ft 441 kts 146°
2026-05-07 14:14 47.46551 12.71345 25956 ft 443 kts 146°
2026-05-07 14:14 47.44063 12.74038 26345 ft 444 kts 146°
2026-05-07 14:14 47.41569 12.76749 26719 ft 446 kts 146°
2026-05-07 14:14 47.39067 12.79469 27077 ft 448 kts 146°
2026-05-07 14:15 47.36552 12.82199 27416 ft 450 kts 146°
2026-05-07 14:15 47.34023 12.84937 27765 ft 452 kts 146°
2026-05-07 14:15 47.31483 12.87683 28090 ft 453 kts 146°
2026-05-07 14:15 47.28936 12.90428 28412 ft 455 kts 147°
2026-05-07 14:16 47.26374 12.93177 28693 ft 456 kts 146°
2026-05-07 14:16 47.23810 12.95922 29152 ft 454 kts 147°
2026-05-07 14:16 47.21265 12.98647 29606 ft 451 kts 147°
2026-05-07 14:16 47.18737 13.01351 30050 ft 450 kts 147°
2026-05-07 14:17 47.16214 13.04054 30404 ft 449 kts 147°
2026-05-07 14:17 47.13686 13.06764 30662 ft 449 kts 147°
2026-05-07 14:17 47.11159 13.09471 30927 ft 450 kts 147°
2026-05-07 14:17 47.08630 13.12170 31183 ft 451 kts 147°
2026-05-07 14:18 47.06083 13.14877 31417 ft 452 kts 148°
2026-05-07 14:18 47.03533 13.17583 31647 ft 453 kts 148°
2026-05-07 14:18 47.00976 13.20294 31849 ft 455 kts 148°
2026-05-07 14:18 46.98441 13.22981 32064 ft 457 kts 148°
2026-05-07 14:19 46.95859 13.25718 32304 ft 457 kts 148°
2026-05-07 14:19 46.93287 13.28444 32575 ft 458 kts 149°
2026-05-07 14:19 46.90700 13.31177 32848 ft 458 kts 149°
2026-05-07 14:19 46.88116 13.33902 32956 ft 458 kts 149°
2026-05-07 14:20 46.85527 13.36632 33154 ft 460 kts 149°
2026-05-07 14:20 46.82935 13.39368 33411 ft 460 kts 149°
2026-05-07 14:20 46.80335 13.42109 33645 ft 461 kts 149°
2026-05-07 14:20 46.77733 13.44844 33790 ft 461 kts 150°
2026-05-07 14:21 46.75124 13.47582 33958 ft 462 kts 150°
2026-05-07 14:21 46.72515 13.50322 34162 ft 462 kts 150°
2026-05-07 14:21 46.69911 13.53057 34378 ft 461 kts 150°
2026-05-07 14:21 46.67306 13.55789 34627 ft 460 kts 150°
2026-05-07 14:22 46.64715 13.58496 34837 ft 460 kts 150°
2026-05-07 14:22 46.62110 13.61212 35054 ft 459 kts 150°
2026-05-07 14:22 46.59511 13.63914 35270 ft 460 kts 150°
2026-05-07 14:22 46.56910 13.66615 35507 ft 459 kts 150°
2026-05-07 14:23 46.54307 13.69318 35741 ft 458 kts 150°
2026-05-07 14:23 46.51744 13.71978 35984 ft 458 kts 150°
2026-05-07 14:23 46.49158 13.74673 36232 ft 457 kts 150°
2026-05-07 14:23 46.46582 13.77375 36486 ft 455 kts 150°
2026-05-07 14:24 46.44022 13.80065 36716 ft 454 kts 150°
2026-05-07 14:24 46.41461 13.82752 36905 ft 455 kts 150°
2026-05-07 14:24 46.38891 13.85436 36949 ft 457 kts 150°
2026-05-07 14:25 46.34560 13.89946 36958 ft 459 kts 150°
2026-05-07 14:25 46.29366 13.95350 36957 ft 460 kts 150°
2026-05-07 14:26 46.24205 14.00698 36972 ft 459 kts 150°
2026-05-07 14:26 46.19019 14.06060 36967 ft 459 kts 150°
2026-05-07 14:27 46.13814 14.11421 36965 ft 459 kts 150°
2026-05-07 14:27 46.08619 14.16769 36969 ft 459 kts 150°
2026-05-07 14:28 46.03412 14.22117 36961 ft 460 kts 151°
2026-05-07 14:28 45.98202 14.27459 36971 ft 460 kts 150°
2026-05-07 14:29 45.92980 14.32810 36981 ft 460 kts 151°
2026-05-07 14:29 45.87796 14.38090 36983 ft 459 kts 151°
2026-05-07 14:30 45.82582 14.43388 36996 ft 460 kts 151°
2026-05-07 14:30 45.77362 14.48686 37003 ft 460 kts 151°
2026-05-07 14:31 45.72135 14.53972 37005 ft 460 kts 151°
2026-05-07 14:31 45.66911 14.59249 37009 ft 460 kts 151°
2026-05-07 14:32 45.61688 14.64515 36981 ft 459 kts 151°
2026-05-07 14:32 45.56458 14.69778 36991 ft 460 kts 151°
2026-05-07 14:33 45.51217 14.75038 37016 ft 461 kts 151°
2026-05-07 14:33 45.45996 14.80362 37021 ft 462 kts 150°
2026-05-07 14:34 45.40795 14.85740 37032 ft 462 kts 150°
2026-05-07 14:34 45.35627 14.91066 37001 ft 462 kts 150°
2026-05-07 14:35 45.30404 14.96391 37020 ft 462 kts 151°
2026-05-07 14:35 45.25170 15.01716 37021 ft 462 kts 151°
2026-05-07 14:36 45.19943 15.07022 37026 ft 462 kts 151°
2026-05-07 14:36 45.14710 15.12326 36990 ft 462 kts 151°
2026-05-07 14:37 45.09472 15.17629 37011 ft 463 kts 151°
2026-05-07 14:37 45.01603 15.25561 37016 ft 463 kts 151°
2026-05-07 14:38 44.96357 15.30834 37022 ft 463 kts 151°
2026-05-07 14:38 44.91126 15.36087 37009 ft 464 kts 151°
2026-05-07 14:39 44.85864 15.41355 37006 ft 464 kts 151°
2026-05-07 14:39 44.80599 15.46608 37025 ft 463 kts 151°
2026-05-07 14:40 44.75341 15.51851 37032 ft 463 kts 151°
2026-05-07 14:40 44.70085 15.57082 36843 ft 462 kts 151°
2026-05-07 14:41 44.67456 15.59689 36583 ft 461 kts 151°
2026-05-07 14:41 44.64833 15.62284 36334 ft 461 kts 151°
2026-05-07 14:41 44.62204 15.64880 36078 ft 462 kts 151°
2026-05-07 14:41 44.59569 15.67480 35809 ft 463 kts 151°
2026-05-07 14:42 44.56936 15.70078 35564 ft 464 kts 151°
2026-05-07 14:42 44.54296 15.72682 35319 ft 464 kts 151°
2026-05-07 14:42 44.51679 15.75263 35080 ft 465 kts 151°
2026-05-07 14:42 44.49029 15.77872 34830 ft 466 kts 151°
2026-05-07 14:43 44.46378 15.80476 34599 ft 466 kts 151°
2026-05-07 14:43 44.43720 15.83084 34355 ft 467 kts 152°
2026-05-07 14:43 44.41054 15.85698 34117 ft 468 kts 152°
2026-05-07 14:43 44.38379 15.88318 33857 ft 468 kts 152°
2026-05-07 14:44 44.35710 15.90929 33555 ft 467 kts 151°
2026-05-07 14:44 44.33048 15.93534 33286 ft 466 kts 151°
2026-05-07 14:44 44.30394 15.96132 33009 ft 466 kts 151°
2026-05-07 14:44 44.27742 15.98726 32753 ft 466 kts 151°
2026-05-07 14:45 44.25088 16.01319 32502 ft 466 kts 151°
2026-05-07 14:45 44.22429 16.03911 32237 ft 466 kts 151°
2026-05-07 14:45 44.19767 16.06500 31980 ft 466 kts 151°
2026-05-07 14:45 44.17102 16.09088 31725 ft 467 kts 151°
2026-05-07 14:46 44.14438 16.11668 31477 ft 467 kts 151°
2026-05-07 14:46 44.11775 16.14244 31198 ft 467 kts 151°
2026-05-07 14:46 44.09109 16.16821 30951 ft 466 kts 151°
2026-05-07 14:46 44.06487 16.19360 30717 ft 466 kts 151°
2026-05-07 14:47 44.03826 16.21939 30469 ft 466 kts 150°
2026-05-07 14:47 44.01169 16.24507 30219 ft 467 kts 151°
2026-05-07 14:47 43.98493 16.27081 29960 ft 469 kts 151°
2026-05-07 14:47 43.95812 16.29658 29676 ft 469 kts 151°
2026-05-07 14:48 43.93122 16.32241 29385 ft 470 kts 151°
2026-05-07 14:48 43.90431 16.34819 29133 ft 470 kts 151°
2026-05-07 14:48 43.87739 16.37397 28838 ft 471 kts 151°
2026-05-07 14:48 43.85044 16.39976 28557 ft 470 kts 151°
2026-05-07 14:49 43.82354 16.42551 28293 ft 471 kts 151°
2026-05-07 14:49 43.79656 16.45135 28015 ft 471 kts 152°
2026-05-07 14:49 43.76952 16.47722 27739 ft 474 kts 152°
2026-05-07 14:49 43.74239 16.50314 27477 ft 475 kts 152°
2026-05-07 14:50 43.71524 16.52905 27224 ft 475 kts 152°
2026-05-07 14:50 43.68807 16.55495 26960 ft 474 kts 152°
2026-05-07 14:50 43.66089 16.58086 26713 ft 472 kts 152°
2026-05-07 14:50 43.63394 16.60651 26461 ft 470 kts 152°
2026-05-07 14:51 43.60702 16.63203 26208 ft 468 kts 152°
2026-05-07 14:51 43.58023 16.65739 25950 ft 466 kts 152°
2026-05-07 14:51 43.55393 16.68229 25720 ft 463 kts 152°
2026-05-07 14:51 43.52746 16.70732 25453 ft 461 kts 152°
2026-05-07 14:52 43.50102 16.73224 25216 ft 459 kts 152°
2026-05-07 14:52 43.47473 16.75697 24901 ft 455 kts 152°
2026-05-07 14:52 43.44869 16.78147 24174 ft 451 kts 152°
2026-05-07 14:52 43.42295 16.80571 23436 ft 446 kts 151°
2026-05-07 14:53 43.39754 16.82967 22708 ft 440 kts 151°
2026-05-07 14:53 43.37235 16.85341 21567 ft 441 kts 150°
2026-05-07 14:53 43.34679 16.87736 20303 ft 447 kts 150°
2026-05-07 14:53 43.32121 16.90134 19755 ft 437 kts 150°
2026-05-07 14:54 43.29665 16.92448 19169 ft 422 kts 150°
2026-05-07 14:54 43.27265 16.94704 18317 ft 415 kts 150°
2026-05-07 14:54 43.24897 16.96922 17327 ft 410 kts 150°
2026-05-07 14:54 43.22555 16.99106 16435 ft 404 kts 149°
2026-05-07 14:55 43.20246 17.01250 15571 ft 398 kts 149°
2026-05-07 14:55 43.18003 17.03334 15307 ft 381 kts 149°
2026-05-07 14:55 43.15874 17.05328 15001 ft 369 kts 148°
2026-05-07 14:55 43.13922 17.07599 14733 ft 360 kts 139°
2026-05-07 14:56 43.12328 17.10135 14472 ft 352 kts 130°
2026-05-07 14:56 43.10972 17.12878 14181 ft 343 kts 127°
2026-05-07 14:56 43.09636 17.15607 13607 ft 349 kts 127°
2026-05-07 14:56 43.08271 17.18375 13212 ft 352 kts 127°
2026-05-07 14:57 43.06909 17.21142 13001 ft 350 kts 127°
2026-05-07 14:57 43.05551 17.23906 12916 ft 350 kts 127°
2026-05-07 14:57 43.04192 17.26675 12836 ft 350 kts 127°
2026-05-07 14:57 43.02832 17.29437 12754 ft 349 kts 127°
2026-05-07 14:58 43.01475 17.32184 12673 ft 349 kts 127°
2026-05-07 14:58 43.00115 17.34932 12597 ft 348 kts 127°
2026-05-07 14:58 42.98769 17.37656 12517 ft 339 kts 127°
2026-05-07 14:58 42.97487 17.40263 12416 ft 323 kts 127°
2026-05-07 14:59 42.96261 17.42756 12246 ft 311 kts 128°
2026-05-07 14:59 42.95070 17.45177 12022 ft 302 kts 128°
2026-05-07 14:59 42.93891 17.47554 11563 ft 303 kts 128°
2026-05-07 14:59 42.92719 17.49910 11163 ft 296 kts 128°
2026-05-07 15:00 42.91591 17.52187 10865 ft 283 kts 128°
2026-05-07 15:00 42.90488 17.54340 10572 ft 278 kts 134°
2026-05-07 15:00 42.89167 17.56237 10234 ft 274 kts 138°
2026-05-07 15:00 42.87832 17.58086 9895 ft 272 kts 138°
2026-05-07 15:01 42.86505 17.59929 9456 ft 274 kts 138°
2026-05-07 15:01 42.85143 17.61823 8904 ft 281 kts 138°
2026-05-07 15:01 42.83786 17.63711 8582 ft 276 kts 138°
2026-05-07 15:01 42.82469 17.65545 8311 ft 265 kts 139°
2026-05-07 15:02 42.81200 17.67311 8038 ft 257 kts 138°
2026-05-07 15:02 42.79969 17.69025 7761 ft 249 kts 139°
2026-05-07 15:02 42.78776 17.70684 7487 ft 241 kts 139°
2026-05-07 15:02 42.77654 17.72335 7220 ft 236 kts 131°
2026-05-07 15:03 42.76819 17.74224 6965 ft 236 kts 121°
2026-05-07 15:03 42.76062 17.76193 6689 ft 234 kts 122°
2026-05-07 15:03 42.75300 17.78154 6459 ft 233 kts 122°
2026-05-07 15:03 42.74545 17.80084 6235 ft 231 kts 122°
2026-05-07 15:04 42.73778 17.82003 6008 ft 230 kts 123°
2026-05-07 15:04 42.73028 17.83890 5788 ft 224 kts 122°
2026-05-07 15:04 42.72294 17.85762 5471 ft 223 kts 122°
2026-05-07 15:04 42.71579 17.87594 5282 ft 215 kts 122°
2026-05-07 15:05 42.70877 17.89389 5144 ft 211 kts 122°
2026-05-07 15:05 42.70198 17.91124 5050 ft 210 kts 122°
2026-05-07 15:05 42.69511 17.92875 5013 ft 210 kts 123°
2026-05-07 15:05 42.68816 17.94650 5023 ft 207 kts 123°
2026-05-07 15:06 42.68183 17.96272 5017 ft 186 kts 123°
2026-05-07 15:06 42.67571 17.97827 4886 ft 189 kts 123°
2026-05-07 15:06 42.66948 17.99411 4656 ft 190 kts 123°
2026-05-07 15:06 42.66313 18.01025 4417 ft 198 kts 122°
2026-05-07 15:07 42.65666 18.02673 4146 ft 198 kts 122°
2026-05-07 15:07 42.65023 18.04310 3876 ft 195 kts 122°
2026-05-07 15:07 42.64384 18.05936 3614 ft 194 kts 121°
2026-05-07 15:07 42.63750 18.07546 3379 ft 192 kts 121°
2026-05-07 15:08 42.63127 18.09128 3120 ft 190 kts 121°
2026-05-07 15:08 42.62508 18.10699 2861 ft 189 kts 120°
2026-05-07 15:08 42.61902 18.12236 2604 ft 187 kts 120°
2026-05-07 15:08 42.61290 18.13787 2365 ft 185 kts 120°
2026-05-07 15:09 42.60688 18.15312 2117 ft 183 kts 120°
2026-05-07 15:09 42.60087 18.16834 1875 ft 183 kts 119°
2026-05-07 15:09 42.59512 18.18290 1639 ft 167 kts 119°
2026-05-07 15:09 42.58999 18.19590 1412 ft 146 kts 119°
2026-05-07 15:10 42.58536 18.20760 1226 ft 140 kts 120°
2026-05-07 15:10 42.58085 18.21898 1042 ft 137 kts 120°
2026-05-07 15:10 42.57643 18.23018 845 ft 132 kts 123°
2026-05-07 15:10 42.57209 18.24123 690 ft 135 kts 119°
2026-05-07 15:11 42.56776 18.25215 546 ft 128 kts 120°
2026-05-07 15:11 42.56404 18.26142 534 ft 91 kts 117°
2026-05-07 15:11 42.56176 18.26713 534 ft 56 kts 120°
2026-05-07 15:11 42.56007 18.27135 534 ft 46 kts 116°
2026-05-07 15:12 42.55911 18.27312 532 ft 14 kts 152°
2026-05-07 15:12 42.55816 18.27340 533 ft 14 kts 180°
2026-05-07 15:12 42.55772 18.27276 534 ft 4 kts 291°
2026-05-07 15:12 42.55783 18.27245 534 ft 5 kts 295°
2026-05-07 15:13 42.55789 18.27230 534 ft 1 kts 298°
2026-05-07 15:13 42.55798 18.27207 534 ft 4 kts 298°
2026-05-07 15:13 42.55815 18.27165 534 ft 6 kts 298°
2026-05-07 15:13 42.55837 18.27108 534 ft 2 kts 298°
2026-05-07 15:14 42.55839 18.27105 534 ft 1 kts 298°
2026-05-07 15:14 42.55849 18.27079 534 ft 7 kts 298°
2026-05-07 15:14 42.55886 18.26985 534 ft 15 kts 297°
2026-05-07 15:14 42.55949 18.26823 534 ft 23 kts 298°
2026-05-07 15:15 42.56013 18.26663 534 ft 12 kts 291°
2026-05-07 15:15 42.55985 18.26620 534 ft 3 kts 213°
2026-05-07 15:15 42.55973 18.26610 534 ft 3 kts 211°
2026-05-07 15:15 42.55972 18.26609 534 ft 0 kts 211°